カタログに戻る

KUIPER-00275

運用中通信LEO
NORAD 67793·PAYLOAD·🇺🇸 United States

打ち上げ Feb 12, 2026 から Guiana Space Centre

Loading…

次のパス (今後24時間)

TLE

最新Source: CelesTrak SupGP

元期: Sep 14, 2026, 20:03 UTC

1 67793C 26030AF  26257.83592593  .00004409  00000+0  57733-3 0  2570
2 67793  51.8991  66.7209 0000846 119.5902 243.9520 14.79916486    13

AllMySatでKUIPER-00275をリアルタイム追跡

Download on the App Store